Starlink 3173

operational
NORAD ID: 51111 Int'l Des: 2022-005 Owner: SPXS Country: US Constellation: starlink
LEOCIRCULAR

Starlink 3173について

説明を読み込み中...

リアルタイム位置

3D地球を読み込み中...

次回通過

高度履歴

Altitude vs Time

uPlot chart will show altitude changes over time

軌道要素

1 51111U 22005H 26035.82188905 -.00001914 00000-0 -10216-3 0 9995
2 51111 53.2172 76.6734 0001320 90.9477 269.1667 15.08848005223919
Epoch: Feb 4, 2026 • Age: 19 hours

現在のステータス

高度 544.0 km
速度 7.60 km/s
衛星直下点 46.72°N, 123.08°E
打ち上げ日 Jan 19, 2022
運用期間 4 years
タイプ internet

技術仕様

分類 Payload
質量 297.00 kg
乾燥質量 275.00 kg
総質量 297.00 kg
長さ 0.20 m
直径 2.80 m
スパン 9.00 m
形状 Box + pan
製造者 SPXS
バスタイプ Starlink
フェーズステータス In Orbit
所有者/国 SPXS/US

大規模コンステレーション

Loading constellations...